GW5357 Weather Reports


Display with metric or nautical units.
time (UTC)temp
F
wind
direction
speed
MPH
gust
MPH
rain 1hr
in
rain 24hr
in
rain mn
in
humidity
%
barometer
mb
20260906223004 71 46 2.0 7.0 0.00 0.00 0.00 59 1014.8
20260906222503 71 231 3.0 8.0 0.00 0.00 0.00 59 1014.8
20260906222005 72 46 3.0 8.0 0.00 0.00 0.00 59 1014.8
20260906221504 71 223 3.0 7.0 0.00 0.00 0.00 60 1014.8
20260906221003 71 113 3.0 7.0 0.00 0.00 0.00 58 1014.8
20260906220007 72 269 2.0 6.0 0.00 0.00 0.00 59 1014.7
20260906215502 71 236 2.0 6.0 0.00 0.00 0.00 59 1014.7
20260906214503 71 234 3.0 9.0 0.00 0.00 0.00 61 1014.8
20260906213502 71 262 4.0 10.0 0.00 0.00 0.00 58 1014.9
20260906213004 71 13 4.0 10.0 0.00 0.00 0.00 56 1014.9
20260906212503 71 342 3.0 8.0 0.00 0.00 0.00 58 1015.0
20260906212003 70 257 3.0 9.0 0.00 0.00 0.00 59 1015.2
20260906211503 70 1 4.0 9.0 0.00 0.00 0.00 59 1015.2
20260906210503 70 250 2.0 8.0 0.00 0.00 0.00 63 1015.3
20260906210007 70 223 2.0 8.0 0.00 0.00 0.00 60 1015.3
20260906205503 69 355 2.0 14.0 0.00 0.00 0.00 61 1015.2
20260906205003 69 195 4.0 14.0 0.00 0.00 0.00 62 1015.3
20260906204503 69 356 4.0 9.0 0.00 0.00 0.00 61 1015.3
20260906204003 69 1 4.0 9.0 0.00 0.00 0.00 62 1016.0
20260906203503 69 317 5.0 8.0 0.00 0.00 0.00 62 1015.5
20260906203004 69 145 2.0 7.0 0.00 0.00 0.00 61 1015.4
20260906202502 69 314 3.0 10.0 0.00 0.00 0.00 63 1015.4
20260906202003 69 13 3.0 8.0 0.00 0.00 0.00 64 1015.5
20260906201004 68 188 2.0 7.0 0.00 0.00 0.00 66 1015.5
20260906200503 68 269 2.0 6.0 0.00 0.00 0.00 66 1015.6
20260906200005 67 161 3.0 8.0 0.00 0.00 0.00 67 1015.6
20260906195503 67 276 3.0 10.0 0.00 0.00 0.00 67 1015.7
20260906194505 67 183 4.0 9.0 0.00 0.00 0.00 68 1015.8
20260906194003 67 331 2.0 9.0 0.00 0.00 0.00 68 1015.8
20260906193503 66 145 3.0 10.0 0.00 0.00 0.00 68 1015.8
20260906193004 66 211 3.0 10.0 0.00 0.00 0.00 68 1015.8
20260906192502 66 257 3.0 9.0 0.00 0.00 0.00 68 1015.8
20260906192004 66 342 5.0 9.0 0.00 0.00 0.00 68 1015.8
20260906191504 66 300 3.0 10.0 0.00 0.00 0.00 68 1015.9
20260906191003 67 121 3.0 10.0 0.00 0.00 0.00 68 1015.9
20260906190504 67 225 4.0 7.0 0.00 0.00 0.00 68 1015.9
20260906190004 67 259 3.0 8.0 0.00 0.00 0.00 68 1015.9
20260906185503 67 283 4.0 8.0 0.00 0.00 0.00 69 1016.0
20260906185004 67 147 3.0 8.0 0.00 0.00 0.00 68 1016.0
20260906184504 67 122 3.0 6.0 0.00 0.00 0.00 68 1016.1
20260906184003 67 320 3.0 6.0 0.00 0.00 0.00 61 1016.3
20260906183503 67 1 3.0 8.0 0.00 0.00 0.00 61 1016.2
20260906182503 67 306 3.0 5.0 0.00 0.00 0.00 60 1016.4
20260906181003 66 41 2.0 6.0 0.00 0.00 0.00 63 1016.4
20260906180007 65 269 3.0 7.0 0.00 0.00 0.00 63 1016.5
20260906175005 65 8 2.0 4.0 0.00 0.00 0.00 63 1016.6
20260906174503 64 342 2.0 6.0 0.00 0.00 0.00 64 1016.6
20260906173503 64 9 2.0 6.0 0.00 0.00 0.00 66 1016.6
20260906173004 63 314 2.0 5.0 0.00 0.00 0.00 67 1016.8
20260906172504 63 28 1.0 3.0 0.00 0.00 0.00 68 1016.7
20260906172003 62 46 1.0 3.0 0.00 0.00 0.00 69 1016.8
20260906171504 62 347 1.0 3.0 0.00 0.00 0.00 69 1016.8
20260906171004 61 28 2.0 4.0 0.00 0.00 0.00 70 1016.8
20260906170503 61 331 2.0 4.0 0.00 0.00 0.00 73 1016.8
20260906170007 60 340 2.0 3.0 0.00 0.00 0.00 74 1016.8
20260906165504 59 46 2.0 2.0 0.00 0.00 0.00 75 1016.9
20260906165003 59 314 1.0 3.0 0.00 0.00 0.00 75 1016.8
20260906164505 58 336 2.0 3.0 0.00 0.00 0.00 77 1017.0
20260906164004 58 213 1.0 2.0 0.00 0.00 0.00 79 1017.1
20260906163503 57 20 1.0 3.0 0.00 0.00 0.00 79 1017.0
20260906162504 56 20 1.0 3.0 0.00 0.00 0.00 82 1017.1
20260906161504 54 331 1.0 2.0 0.00 0.00 0.00 85 1017.1
20260906161003 54 20 1.0 5.0 0.00 0.00 0.00 87 1017.1
20260906160503 53 321 1.0 5.0 0.00 0.00 0.00 87 1017.2
20260906160007 53 331 2.0 3.0 0.00 0.00 0.00 88 1017.3
20260906155003 52 336 1.0 3.0 0.00 0.00 0.00 91 1017.3
20260906154506 51 331 1.0 2.0 0.00 0.00 0.00 92 1017.4
20260906153502 50 314 1.0 2.0 0.00 0.00 0.00 94 1017.4
20260906153004 50 308 1.0 2.0 0.00 0.00 0.00 94 1017.4
20260906152503 50 1 0.0 2.0 0.00 0.00 0.00 94 1017.4
20260906152004 49 1 1.0 2.0 0.00 0.00 0.00 94 1017.3
20260906151504 49 296 1.0 2.0 0.00 0.00 0.00 94 1017.3
20260906151004 49 324 1.0 2.0 0.00 0.00 0.00 94 1017.3
20260906150503 49 331 1.0 2.0 0.00 0.00 0.00 94 1017.3
20260906150007 48 331 2.0 2.0 0.00 0.00 0.00 94 1017.4
20260906145003 48 46 1.0 3.0 0.00 0.00 0.00 94 1017.3
20260906144503 48 331 2.0 3.0 0.00 0.00 0.00 94 1017.3
20260906144002 48 340 2.0 3.0 0.00 0.00 0.00 94 1017.1
20260906143502 48 331 1.0 3.0 0.00 0.00 0.00 94 1017.1
20260906143003 48 335 2.0 3.0 0.00 0.00 0.00 94 1017.3
20260906142502 47 336 2.0 3.0 0.00 0.00 0.00 94 1017.3
20260906142003 47 1 1.0 2.0 0.00 0.00 0.00 94 1017.4
20260906141504 47 269 0.0 1.0 0.00 0.00 0.00 94 1017.4
20260906141003 47 314 0.0 2.0 0.00 0.00 0.00 94 1017.3
20260906140503 47 324 1.0 3.0 0.00 0.00 0.00 94 1017.1
20260906140004 47 336 2.0 3.0 0.00 0.00 0.00 94 1017.1
20260906135502 47 340 2.0 3.0 0.00 0.00 0.00 94 1017.0
20260906135003 47 327 1.0 2.0 0.00 0.00 0.00 94 1016.9
20260906134502 46 336 1.0 2.0 0.00 0.00 0.00 94 1016.9
20260906133003 46 46 0.0 2.0 0.00 0.00 0.00 93 1016.8
20260906132502 47 344 0.0 1.0 0.00 0.00 0.00 93 1016.8
20260906132003 47 46 0.0 1.0 0.00 0.00 0.00 93 1016.8
20260906131503 47 135 0.0 1.0 0.00 0.00 0.00 93 1016.8
20260906131002 47 331 0.0 1.0 0.00 0.00 0.00 93 1016.8
20260906130503 48 46 0.0 3.0 0.00 0.00 0.00 93 1016.8
20260906130004 48 46 1.0 3.0 0.00 0.00 0.00 94 1016.7
20260906125003 47 342 2.0 3.0 0.00 0.00 0.00 94 1016.8
20260906124502 47 331 1.0 2.0 0.00 0.00 0.00 93 1016.8
20260906123501 47 269 1.0 2.0 0.00 0.00 0.00 93 1017.0
20260906122502 48 1 1.0 2.0 0.00 0.00 0.00 93 1017.0
20260906122003 48 314 1.0 3.0 0.00 0.00 0.00 93 1017.0
20260906121502 48 338 2.0 2.0 0.00 0.00 0.00 93 1017.0
20260906121002 48 324 1.0 2.0 0.00 0.00 0.00 93 1017.0
20260906120004 48 331 2.0 3.0 0.00 0.00 0.00 93 1017.1
20260906115502 48 340 2.0 3.0 0.00 0.00 0.00 93 1017.0
20260906115002 48 314 1.0 2.0 0.00 0.00 0.00 93 1017.0
20260906114502 48 327 1.0 2.0 0.00 0.00 0.00 92 1017.0
20260906114003 48 1 0.0 2.0 0.00 0.00 0.00 93 1017.0
20260906113502 48 314 1.0 2.0 0.00 0.00 0.00 93 1017.1
20260906113004 48 324 1.0 2.0 0.00 0.00 0.00 92 1017.0
20260906112003 49 331 2.0 2.0 0.00 0.00 0.00 92 1017.0
20260906111503 49 340 0.0 2.0 0.00 0.00 0.00 92 1017.0
20260906111003 49 124 1.0 2.0 0.00 0.00 0.00 93 1017.1
20260906110502 49 314 2.0 2.0 0.00 0.00 0.00 93 1017.0
20260906110006 49 321 1.0 2.0 0.00 0.00 0.00 93 1017.0
20260906105003 49 331 1.0 2.0 0.00 0.00 0.00 93 1016.9
20260906104502 49 340 1.0 3.0 0.00 0.00 0.00 93 1016.8
20260906104003 49 340 1.0 3.0 0.00 0.00 0.00 93 1016.9
20260906103503 49 331 1.0 2.0 0.00 0.00 0.00 92 1016.8
20260906102503 49 1 1.0 1.0 0.00 0.00 0.00 92 1016.7
20260906102002 49 269 0.0 1.0 0.00 0.00 0.00 92 1016.8
20260906101503 49 340 0.0 1.0 0.00 0.00 0.00 92 1016.8
20260906101003 49 331 0.0 2.0 0.00 0.00 0.00 92 1016.9
20260906100501 50 269 1.0 2.0 0.00 0.00 0.00 92 1016.9
20260906100003 50 314 0.0 2.0 0.00 0.00 0.00 92 1016.9
20260906095501 50 344 1.0 2.0 0.00 0.00 0.00 92 1016.9
20260906095003 50 269 1.0 2.0 0.00 0.00 0.00 92 1016.9
20260906094504 50 331 2.0 2.0 0.00 0.00 0.00 92 1016.9
20260906094004 50 336 1.0 2.0 0.00 0.00 0.00 91 1016.9
20260906093501 50 321 1.0 2.0 0.00 0.00 0.00 91 1016.9
20260906093004 50 152 1.0 2.0 0.00 0.00 0.00 92 1016.9
20260906091503 51 161 0.0 2.0 0.00 0.00 0.00 91 1016.9
20260906091002 51 344 0.0 2.0 0.00 0.00 0.00 91 1017.0
20260906090503 51 314 1.0 2.0 0.00 0.00 0.00 91 1017.0
20260906090004 51 331 1.0 2.0 0.00 0.00 0.00 91 1017.1
20260906085502 51 295 0.0 2.0 0.00 0.00 0.00 90 1017.1
20260906085003 51 331 1.0 2.0 0.00 0.00 0.00 91 1017.2
20260906083501 52 314 0.0 2.0 0.00 0.00 0.00 91 1017.2
20260906083003 52 108 1.0 1.0 0.00 0.00 0.00 90 1017.2
20260906082503 52 269 0.0 1.0 0.00 0.00 0.00 90 1017.0
20260906081503 52 1 1.0 2.0 0.00 0.00 0.00 90 1017.1
20260906081002 52 295 2.0 2.0 0.00 0.00 0.00 90 1017.1
20260906080503 52 336 1.0 2.0 0.00 0.00 0.00 90 1017.1
20260906075502 52 324 2.0 3.0 0.00 0.00 0.00 91 1017.2
20260906075000 52 340 1.0 2.0 0.00 0.00 0.00 90 1017.3
20260906074502 52 331 1.0 2.0 0.00 0.00 0.00 90 1017.2
20260906073500 52 331 1.0 2.0 0.00 0.00 0.00 90 1017.3
20260906073002 52 135 0.0 1.0 0.00 0.00 0.00 90 1017.4
20260906072501 53 331 0.0 1.0 0.00 0.00 0.00 90 1017.5
20260906072003 53 46 0.0 3.0 0.00 0.00 0.00 90 1017.4
20260906071502 53 314 1.0 3.0 0.00 0.00 0.00 90 1017.5
20260906071000 53 324 2.0 3.0 0.00 0.00 0.00 90 1017.5
20260906070500 53 344 1.0 3.0 0.00 0.00 0.00 90 1017.5
20260906065004 53 117 0.0 2.0 0.00 0.00 0.00 89 1017.3
20260906064505 53 331 1.0 2.0 0.00 0.00 0.00 89 1017.3
20260906064005 53 331 1.0 2.0 0.00 0.00 0.00 89 1017.3
20260906063506 53 331 1.0 2.0 0.00 0.00 0.00 89 1017.2
20260906062504 54 327 2.0 2.0 0.00 0.00 0.00 89 1017.1
20260906062004 54 340 0.0 2.0 0.00 0.00 0.00 88 1017.1
20260906061504 54 324 1.0 2.0 0.00 0.00 0.00 88 1017.1
20260906060504 54 340 1.0 2.0 0.00 0.00 0.00 88 1017.1
20260906060009 54 340 2.0 2.0 0.00 0.00 0.00 88 1017.1
20260906054505 55 46 0.0 2.0 0.00 0.00 0.00 87 1017.5
20260906054005 55 269 1.0 2.0 0.00 0.00 0.00 87 1017.4
20260906053504 55 314 1.0 2.0 0.00 0.00 0.00 87 1017.4
20260906053007 55 314 1.0 1.0 0.00 0.00 0.00 87 1017.5
20260906052004 55 340 1.0 1.0 0.00 0.00 0.00 86 1017.5
20260906051505 55 296 0.0 2.0 0.00 0.00 0.00 86 1017.5
20260906051004 56 314 1.0 2.0 0.00 0.00 0.00 86 1017.7
20260906050008 56 321 1.0 2.0 0.00 0.00 0.00 85 1017.6
20260906045503 56 89 0.0 2.0 0.00 0.00 0.00 85 1017.6
20260906045005 56 344 1.0 2.0 0.00 0.00 0.00 85 1017.7
20260906044505 56 340 2.0 2.0 0.00 0.00 0.00 85 1017.6
20260906044005 56 286 1.0 2.0 0.00 0.00 0.00 84 1017.8
20260906043505 56 303 1.0 2.0 0.00 0.00 0.00 85 1017.8
20260906043006 57 342 2.0 2.0 0.00 0.00 0.00 84 1017.7
20260906042504 57 331 0.0 1.0 0.00 0.00 0.00 84 1017.7
20260906042004 57 46 0.0 2.0 0.00 0.00 0.00 84 1017.6
20260906041005 57 336 1.0 2.0 0.00 0.00 0.00 83 1017.5
20260906040503 57 336 1.0 2.0 0.00 0.00 0.00 82 1017.6
20260906040008 58 314 1.0 2.0 0.00 0.00 0.00 82 1017.6
20260906035504 58 340 1.0 2.0 0.00 0.00 0.00 81 1017.6
20260906035004 58 314 1.0 2.0 0.00 0.00 0.00 80 1017.6
20260906034505 58 1 1.0 2.0 0.00 0.00 0.00 80 1017.6
20260906034005 59 344 1.0 2.0 0.00 0.00 0.00 80 1017.6
20260906033503 59 336 1.0 2.0 0.00 0.00 0.00 80 1017.6
20260906033007 59 331 1.0 2.0 0.00 0.00 0.00 79 1017.5
20260906032503 59 331 1.0 2.0 0.00 0.00 0.00 79 1017.6
20260906032006 60 324 1.0 2.0 0.00 0.00 0.00 77 1017.5
20260906031504 60 314 0.0 2.0 0.00 0.00 0.00 77 1017.5
20260906031004 61 324 1.0 2.0 0.00 0.00 0.00 76 1017.5
20260906030007 62 314 0.0 2.0 0.00 0.00 0.00 74 1017.4
20260906025503 62 324 1.0 1.0 0.00 0.00 0.00 73 1017.4
20260906025004 62 1 0.0 1.0 0.00 0.00 0.00 73 1017.4
20260906024503 63 135 0.0 2.0 0.00 0.00 0.00 72 1017.4
20260906024003 63 1 1.0 2.0 0.00 0.00 0.00 71 1017.3
20260906023504 63 314 1.0 2.0 0.00 0.00 0.00 70 1017.4
20260906023004 64 296 1.0 2.0 0.00 0.00 0.00 69 1017.4
20260906022003 64 1 1.0 2.0 0.00 0.00 0.00 68 1017.5
20260906021505 64 135 1.0 2.0 0.00 0.00 0.00 69 1017.4
20260906021004 64 89 0.0 2.0 0.00 0.00 0.00 69 1017.4
20260906015502 65 324 1.0 2.0 0.00 0.00 0.00 68 1017.3
20260906015005 65 28 1.0 2.0 0.00 0.00 0.00 66 1017.3
20260906014505 65 1 0.0 2.0 0.00 0.00 0.00 65 1017.3
20260906014004 65 269 0.0 2.0 0.00 0.00 0.00 65 1017.3
20260906013503 65 46 1.0 4.0 0.00 0.00 0.00 65 1017.2
20260906013004 65 206 2.0 4.0 0.00 0.00 0.00 64 1017.1
20260906012503 65 223 1.0 3.0 0.00 0.00 0.00 64 1017.2
20260906012003 66 296 1.0 4.0 0.00 0.00 0.00 64 1017.1
20260906011504 66 303 1.0 4.0 0.00 0.00 0.00 64 1017.1
20260906011003 66 344 2.0 3.0 0.00 0.00 0.00 63 1017.1
20260906010504 66 269 1.0 4.0 0.00 0.00 0.00 63 1017.1
20260906010008 67 296 2.0 5.0 0.00 0.00 0.00 62 1017.1
20260906005003 68 210 1.0 4.0 0.00 0.00 0.00 62 1017.0
20260906004504 68 178 1.0 4.0 0.00 0.00 0.00 60 1017.1
20260906004004 68 223 1.0 4.0 0.00 0.00 0.00 62 1017.1
20260906003503 68 170 1.0 4.0 0.00 0.00 0.00 62 1017.0
20260906003004 68 108 2.0 4.0 0.00 0.00 0.00 62 1017.0
20260906002502 68 152 2.0 4.0 0.00 0.00 0.00 61 1017.1
20260906002005 68 161 2.0 4.0 0.00 0.00 0.00 61 1017.1
20260906001504 68 269 1.0 4.0 0.00 0.00 0.00 63 1017.2
20260906001003 67 135 2.0 5.0 0.00 0.00 0.00 64 1017.1
20260906000503 68 178 2.0 5.0 0.00 0.00 0.00 64 1017.2
20260906000005 68 173 2.0 4.0 0.00 0.00 0.00 64 1017.1
20260905235504 68 269 2.0 4.0 0.00 0.00 0.00 63 1017.1
20260905234503 67 314 2.0 4.0 0.00 0.00 0.00 64 1017.1
20260905234004 67 246 1.0 4.0 0.00 0.00 0.00 64 1017.1
20260905233504 67 117 2.0 5.0 0.00 0.00 0.00 65 1017.1
20260905233006 67 147 3.0 5.0 0.00 0.00 0.00 66 1017.0
20260905232503 67 145 2.0 4.0 0.00 0.00 0.00 69 1017.0
20260905232003 66 114 2.0 7.0 0.00 0.00 0.00 69 1017.1
20260905231004 67 223 2.0 6.0 0.00 0.00 0.00 70 1017.1
20260905230006 67 281 2.0 6.0 0.00 0.00 0.00 68 1017.1
20260905225504 67 46 2.0 5.0 0.00 0.00 0.00 67 1017.1
20260905224504 67 279 2.0 6.0 0.00 0.00 0.00 64 1017.1